| Temp | 45.0 °F 3.8 |
|---|---|
| RH | 27 % 42 |
| Dew Pt | 13.1 °F 26.0 |
| Wet Bulb | 32.7 °F 10.8 |
| Wind Dir | SSW | 207 ° |
| Wind Spd | 6.8 mph 0.4 |
| Wind Gust | 11.7 mph 2.3 |
| WindChill | 41.6 °F 4.2 |
| Daily Min Temp | 45.0 °F 2.6 |
| Daily Max Temp | 58.8 °F 6.2 |
| Latest Rain | 0.00 In |
| Daily Rain | 0.00 In |
| New Snow (HN) | 0.0 in |
| Snow Depth (HS) | 40.7 in |
| Date & Time | Temp (°F) | RH (%) | Dew Pt (°F) | Wet Bulb (°F) | Wind Dir (°) | Wind Spd (mph) | Wind Gust (mph) | WindChill (°F) | Latest Rain (In) | New Snow (HN) (in) | Snow Depth (HS) (in) | Daily Min Temp (°F) | Daily Max Temp (°F) | Daily Rain (In) |
|---|---|---|---|---|---|---|---|---|---|---|---|---|---|---|
| 5/7/26 - 2300 | 45.0 | 27 | 13.1 | 32.7 | SW | 214 | 8.8 | 15.2 | 42.2 | 0.00 | 0.0 | 40.7 | 45.0 | 58.8 | 0.00 |
| 5/7/26 - 2200 | 47.8 | 21 | 10.1 | 33.5 | SW | 217 | 13.4 | 20.4 | 42.3 | 0.00 | 0.1 | 40.7 | 46.2 | 58.8 | 0.00 |
| 5/7/26 - 2100 | 47.5 | 29 | 16.9 | 34.9 | SW | 221 | 15.4 | 21.0 | 40.5 | 0.00 | 0.1 | 40.8 | 46.2 | 58.8 | 0.00 |
| 5/7/26 - 2000 | 47.2 | 61 | 34.7 | 40.8 | SW | 230 | 15.8 | 23.0 | 42.2 | 0.00 | 0.1 | 40.8 | 46.6 | 58.8 | 0.00 |
| 5/7/26 - 1900 | 49.5 | 63 | 37.5 | 43.1 | SW | 229 | 16.1 | 24.6 | 45.8 | 0.00 | 0.1 | 40.8 | 46.6 | 58.8 | 0.00 |
| 5/7/26 - 1800 | 52.1 | 56 | 36.8 | 43.9 | SW | 226 | 13.9 | 24.1 | 52.9 | 0.00 | 0.1 | 40.8 | 46.6 | 58.8 | 0.00 |
| 5/7/26 - 1700 | 56.2 | 35 | 28.8 | 42.6 | SSW | 213 | 14.0 | 23.1 | 56.5 | 0.00 | 0.0 | 40.8 | 46.6 | 58.8 | 0.00 |
| 5/7/26 - 1600 | 56.6 | 35 | 29.4 | 43.0 | SW | 220 | 13.8 | 24.2 | 56.9 | 0.00 | 0.0 | 40.9 | 46.6 | 58.8 | 0.00 |
| 5/7/26 - 1500 | 56.3 | 39 | 31.8 | 43.8 | SW | 220 | 12.4 | 23.3 | 56.8 | 0.00 | 0.1 | 41.2 | 46.6 | 58.8 | 0.00 |
| 5/7/26 - 1400 | 57.0 | 40 | 33.1 | 44.5 | SW | 224 | 12.0 | 23.8 | 56.2 | 0.00 | 0.1 | 41.7 | 46.6 | 57.0 | 0.00 |
| 5/7/26 - 1300 | 56.7 | 37 | 30.7 | 43.6 | SW | 228 | 11.3 | 18.9 | 55.7 | 0.00 | 0.0 | 42.2 | 46.6 | 57.0 | 0.00 |
| 5/7/26 - 1200 | 54.4 | 43 | 32.5 | 43.2 | SW | 234 | 10.1 | 17.9 | 55.1 | 0.00 | 0.1 | 42.6 | 46.6 | 56.0 | 0.00 |
| 5/7/26 - 1100 | 54.8 | 48 | 35.2 | 44.4 | WSW | 252 | 7.4 | 18.6 | 52.0 | 0.00 | 0.1 | 42.7 | 46.6 | 55.1 | 0.00 |
| 5/7/26 - 1000 | 51.3 | 48 | 32.5 | 41.9 | W | 281 | 8.5 | 20.3 | 47.8 | 0.00 | 0.1 | 42.7 | 46.6 | 51.4 | 0.00 |
| 5/7/26 - 0900 | 50.2 | 46 | 30.2 | 40.4 | W | 280 | 9.0 | 24.1 | 46.1 | 0.00 | 0.0 | 42.8 | 46.6 | 50.6 | 0.00 |
| 5/7/26 - 0800 | 49.3 | 51 | 31.8 | 40.6 | WNW | 282 | 7.7 | 17.3 | 45.7 | 0.00 | 0.1 | 42.8 | 46.6 | 50.6 | 0.00 |
| 5/7/26 - 0700 | 48.2 | 55 | 32.7 | 40.4 | WNW | 292 | 8.0 | 12.0 | 43.8 | 0.00 | 0.1 | 42.8 | 46.6 | 50.6 | 0.00 |
| 5/7/26 - 0600 | 46.8 | 56 | 31.9 | 39.4 | WNW | 294 | 8.4 | 11.6 | 43.2 | 0.00 | 0.1 | 42.9 | 46.6 | 50.6 | 0.00 |
| 5/7/26 - 0500 | 47.5 | 54 | 31.8 | 39.7 | WNW | 296 | 8.9 | 12.9 | 44.1 | 0.00 | 0.1 | 42.8 | 47.4 | 50.6 | 0.00 |
| 5/7/26 - 0400 | 49.5 | 58 | 35.4 | 42.2 | W | 262 | 4.7 | 11.6 | 48.6 | 0.00 | 0.0 | 42.8 | 48.7 | 50.6 | 0.00 |
| 5/7/26 - 0300 | 49.7 | 61 | 36.7 | 42.8 | SW | 236 | 6.1 | 9.3 | 47.0 | 0.00 | 0.1 | 43.0 | 48.7 | 50.5 | 0.00 |
| 5/7/26 - 0200 | 50.0 | 61 | 37.3 | 43.2 | SW | 235 | 5.3 | 9.1 | 47.9 | 0.00 | 0.1 | 42.9 | 48.7 | 50.5 | 0.00 |
| 5/7/26 - 0100 | 49.6 | 62 | 37.0 | 42.9 | WSW | 248 | 1.3 | 4.6 | 49.1 | 0.00 | 0.1 | 42.9 | 48.7 | 49.7 | 0.00 |
| 5/7/26 - 0000 | 49.0 | 67 | 38.6 | 43.4 | NW | 314 | 4.4 | 8.1 | 46.6 | 0.00 | 0.0 | 43.0 | 42.4 | 65.0 | 0.00 |
| 5/6/26 - 2300 | 48.8 | 69 | 39.1 | 43.6 | NW | 317 | 7.1 | 11.7 | 46.4 | 0.00 | 0.0 | 42.8 | 42.4 | 65.0 | 0.00 |
| Max | 57.0 | 69 | 39.1 | 44.5 | - | 16.1 | 24.6 | 56.9 | 0.00 | 0.1 | 43.0 | 48.7 | 65.0 | 0.00 |
| Avg | 50.8 | 49 | 31.4 | 41.4 | - | 9.7 | 17.2 | 48.5 | 0.00 | 0.1 | 42.0 | - | - | - |
| Min | 45.0 | 21 | 10.1 | 32.7 | - | 1.3 | 4.6 | 40.5 | 0.00 | 0.0 | 40.7 | 42.4 | 49.7 | 0.00 |
| Total | - | - | - | - | - | - | - | - | 0.00 | - | - | - | - | - |
| Date | Daily Max Temp (°F) | Time of Max Temp | Daily Min Temp (°F) | Time of Min Temp | Daily Rain (In) | Season Precip (In) | New Snow (HN) (in) | Snow Depth (HS) (in) | Wind Spd (mph) | Daily Max Wind (mph) | Time of Max Wind | Max Wind Dir (°) | Daily Max RH (%) | Daily Min RH (%) | Wet Bulb (°F) | WetB Hrs <28F (hrs) | MinBV Day (V) |
|---|---|---|---|---|---|---|---|---|---|---|---|---|---|---|---|---|---|
| 5/6/26 | 65.0 | 1707 | 42.4 | 0550 | 0.00 | 101.30 | 0.0 | 43.0 | 7.1 | 19.7 | 1356 | NNE | 27 | 83 | 31 | 43.2 | 0.0 | 12.8 |
| 5/5/26 | 54.3 | 1710 | 31.8 | 0045 | 0.02 | 101.30 | 0.0 | 45.6 | 8.0 | 21.0 | 1541 | N | 5 | 100 | 55 | 38.0 | 0.0 | 12.9 |
| 5/4/26 | 40.5 | 0839 | 31.3 | 2024 | 0.95 | 101.30 | 2.1 | 48.9 | 5.3 | 18.5 | 1653 | WSW | 247 | 100 | 70 | 34.0 | 0.0 | 13.0 |
| 5/3/26 | 53.4 | 1248 | 33.1 | 1545 | 0.24 | 100.30 | 0.1 | 46.8 | 5.5 | 33.6 | 1406 | S | 170 | 100 | 45 | 37.4 | 0.0 | 12.8 |
| 5/2/26 | 53.7 | 1154 | 40.7 | 2315 | 0.12 | 100.10 | 0.0 | 47.6 | 7.9 | 23.5 | 1156 | S | 191 | 93 | 44 | 40.4 | 0.0 | 12.8 |
| 5/1/26 | 60.0 | 1700 | 39.0 | 0423 | 0.00 | 100.00 | 0.0 | 49.0 | 4.2 | 18.2 | 1110 | E | 94 | 79 | 24 | 37.6 | 0.0 | 12.9 |
| 4/30/26 | 59.5 | 1609 | 37.0 | 0605 | 0.00 | 100.00 | 0.1 | 50.7 | 3.4 | 18.4 | 1146 | E | 88 | 90 | 27 | 37.6 | 0.0 | 12.8 |
| 4/29/26 | 56.9 | 1449 | 31.3 | 0420 | 0.00 | 100.00 | 0.1 | 52.1 | 3.5 | 16.7 | 1604 | WSW | 241 | 96 | 28 | 36.0 | 0.0 | 12.8 |
| 4/28/26 | 47.8 | 1240 | 26.7 | 0349 | 0.01 | 100.00 | 0.0 | 53.2 | 3.8 | 16.1 | 1526 | WNW | 293 | 100 | 38 | 31.8 | 3.7 | 12.8 |
| 4/27/26 | 42.7 | 1500 | 21.7 | 0633 | 0.02 | 100.00 | 0.2 | 54.0 | 5.3 | 17.3 | 0216 | SE | 130 | 100 | 52 | 27.9 | 11.1 | 12.9 |
| 4/26/26 | 33.1 | 1235 | 25.0 | 0558 | 0.19 | 100.00 | 1.5 | 56.1 | 13.0 | 39.0 | 1527 | ESE | 115 | 100 | 80 | 26.9 | 15.7 | 12.9 |
| 4/25/26 | 43.6 | 1401 | 27.0 | 2359 | 0.00 | 99.80 | 0.0 | 54.2 | 10.4 | 28.6 | 1131 | S | 191 | 100 | 28 | 30.4 | 4.1 | 12.8 |
| 4/24/26 | 49.3 | 1356 | 32.3 | 1925 | 0.20 | 99.80 | 0.5 | 55.1 | 4.4 | 22.4 | 1543 | SW | 225 | 100 | 50 | 34.0 | 0.0 | 12.8 |
| 4/23/26 | 50.6 | 1403 | 22.7 | 0358 | 0.00 | 99.60 | 0.0 | 57.2 | 3.1 | 11.9 | 1811 | SW | 215 | 100 | 43 | 31.5 | 7.8 | 12.9 |
| 4/22/26 | 31.7 | 1514 | 19.9 | 0251 | 0.25 | 99.60 | 9.0 | 60.6 | 9.8 | 32.2 | 0502 | ESE | 107 | 98 | 89 | 24.0 | 20.9 | 12.9 |
| 4/21/26 | 34.8 | 0001 | 22.4 | 2213 | 1.46 | 99.30 | 6.6 | 61.7 | 10.1 | 32.7 | 2004 | S | 176 | 99 | 77 | 27.3 | 14.1 | 12.9 |
| 4/20/26 | 48.4 | 1547 | 34.1 | 2256 | 0.00 | 97.90 | 0.2 | 51.8 | 14.0 | 36.3 | 0123 | SSE | 167 | 83 | 32 | 33.7 | 0.0 | 12.8 |
| 4/19/26 | 52.6 | 1229 | 35.5 | 0406 | 0.00 | 97.90 | 0.1 | 53.1 | 13.9 | 34.6 | 2159 | NE | 56 | 79 | 33 | 34.7 | 0.0 | 12.8 |
| 4/18/26 | 59.4 | 1321 | 32.0 | 0617 | 0.00 | 97.90 | 0.1 | 55.2 | 3.2 | 16.3 | 2355 | SSW | 204 | 86 | 25 | 34.5 | 5.0 | 12.9 |
| 4/17/26 | 53.7 | 1637 | 17.8 | 0517 | 0.00 | 97.90 | 0.0 | 57.8 | 4.0 | 23.4 | 0122 | ENE | 64 | 72 | 15 | 24.2 | 15.8 | 12.9 |
| 4/16/26 | 42.7 | 1638 | 19.8 | 2354 | 0.00 | 97.90 | 0.1 | 59.7 | 10.0 | 37.5 | 0235 | S | 170 | 98 | 20 | 25.2 | 20.0 | 12.9 |
| 4/15/26 | 39.6 | 1353 | 28.7 | 2343 | 0.00 | 97.90 | 0.0 | 62.4 | 17.4 | 45.0 | 2132 | SE | 132 | 88 | 37 | 29.0 | 9.8 | 12.9 |
| 4/14/26 | 40.2 | 1546 | 24.3 | 0411 | 0.00 | 97.90 | 0.0 | 65.7 | 7.0 | 24.5 | 1650 | SW | 216 | 98 | 35 | 28.4 | 13.3 | 12.9 |
| 4/13/26 | 37.0 | 1511 | 22.8 | 0001 | 0.18 | 97.90 | 0.0 | 71.5 | 3.1 | 14.3 | 2038 | NW | 322 | 100 | 91 | 27.9 | 14.2 | 12.9 |
| 4/12/26 | 26.6 | 1328 | 20.0 | 0322 | 2.01 | 97.70 | 9.4 | 77.8 | 6.2 | 32.2 | 0031 | SSE | 154 | 100 | 99 | 22.6 | 24.0 | 13.0 |
| 4/11/26 | 31.8 | 1209 | 23.6 | 2359 | 1.84 | 95.70 | 8.4 | 61.8 | 12.2 | 46.9 | 1643 | E | 101 | 100 | 100 | 28.9 | 3.0 | 12.9 |
| 4/10/26 | 40.1 | 1145 | 28.4 | 2319 | 1.21 | 93.80 | 4.5 | 49.8 | 11.4 | 38.7 | 1346 | SE | 136 | 100 | 80 | 32.7 | 0.0 | 12.9 |
| 4/9/26 | 47.2 | 1151 | 36.3 | 2359 | 0.11 | 92.60 | 0.3 | 44.3 | 7.0 | 33.2 | 2245 | S | 172 | 97 | 57 | 38.2 | 0.0 | 12.8 |
| 4/8/26 | 54.6 | 1231 | 38.3 | 2324 | 0.00 | 92.50 | 0.1 | 45.5 | 7.0 | 21.8 | 2014 | SSW | 212 | 93 | 26 | 36.6 | 0.0 | 12.8 |
| 4/7/26 | 56.6 | 1330 | 39.0 | 0001 | 0.00 | 92.50 | 0.0 | 46.6 | 9.1 | 21.8 | 2032 | SW | 225 | 63 | 15 | 33.7 | 1.3 | 12.9 |
| Max | 65.0 | - | 42.4 | - | 2.01 | 101.30 | 9.4 | 77.8 | 17.4 | 46.9 | - | - | 100 | 100 | 43.2 | 24.0 | 13.0 |
| Avg | - | - | - | - | - | - | 1.5 | 54.6 | 7.7 | - | - | - | - | - | 32.3 | - | - |
| Min | 26.6 | - | 17.8 | - | 0.00 | 92.50 | 0.0 | 43.0 | 3.1 | 11.9 | - | - | 63 | 15 | 22.6 | 0.0 | 12.8 |